Location: Unspecified
(0.0000°N, 0.0000°E)
Time: 16:15:38
(UTC+00:00)

CUTE-I - Pass Details

Date: 08 December 2017
Orbit: 812 x 824 km, 98.7° (Epoch: 21 July)

Event Time Altitude Azimuth Distance (km) Brightness Sun altitude
Rises 18:35:11 0° 185° (S) 3,354 ? -9.9°
Reaches altitude 10° 18:37:44 10° 194° (SSW) 2,421 ? -10.5°
Maximum altitude 18:42:31 34° 257° (WSW) 1,339 ? -11.6°
Drops below altitude 10° 18:47:18 10° 321° (NW) 2,415 ? -12.7°
Sets 18:49:51 0° 330° (NNW) 3,345 ? -13.3°
